User: anonymous   Login
Location: Vancouver
(49.2500°N, 123.1330°W)
Time: 03:49:40
(UTC-07:00)
Language:

Cosmos 1340 Rocket - Orbit

View from above orbital plane
View from above orbital plane
View from above satellite
View from above satellite

Ground track
Ground track

The orbit data is extracted from the following two-line orbital elements,

1 13068U 82013B   18114.82535855 -.00000262 +00000-0 -18965-4 0  9993
2 13068 081.2043 226.6363 0021801 012.7275 347.4494 15.07127149970167
Epoch (UTC): 24 April 2018 19:48:30
Eccentricity: 0.0021801
inclination: 81.2043°
perigee height: 530 km
apogee height: 560 km
right ascension of ascending node: 226.6363°
argument of perigee: 12.7275°
revolutions per day: 15.07127149
mean anomaly at epoch: 347.4494°
orbit number at epoch: 97016

The dashed part of the orbit path shows where the satellite is in the earth's shadow,  

DLR